Orbital Elements
Epoch 2007 Sept. 17.0 TT = JDT 2454360.5
T 2007 Sept. 4.59468 TT MPC
q 3.4687535 (2000.0) P Q
z +0.0057643 Peri. 125.73926 +0.07549955 -0.97522579
+/-0.0000015 Node 41.62782 -0.98573033 -0.04153204
e 0.9800049 Incl. 161.75930 -0.15045110 -0.21727803
From 597 observations 2006 Nov. 12-2008 July 1, mean residual 0".5.
|